WEINA 2

导读

WEINA 2(维纳二号)是中国于2020年12月27日8时发射的人造卫星,作为中国航天年度收官阶段发射任务的组成部分,它承载着特定空间应用试验任务,融入中国商业航天快速发展的浪潮。此次发射延续了中国航天2020年的高光表现——当年中国完成了北斗组网、嫦娥五号采样返回、天问一号奔火等重大任务,WEINA 2也为年度高密度发射任务增添了一块拼图,助力中国航天拓展近地空间利用的边界。

Basic Information
目录编号:
47303
目录名称:
WEINA 2
国际标识:
2020-103B
轨道中心:
EARTH
卫星名称:
WEINA 2
卫星全名:
--
卫星状态:
在轨 (已飞行1998 天)
发射日期:
2020-12-27 UTC
国别 :
中国 (CN)
星等 :
--
Orbit Information
数据来源 国际轨道数据 AOE轨道数据
星历时间 2026-06-17T11:53:28+0800
5小时前
查看轨道信息
2026-06-14T03:00:00+0800
3天前
查看轨道信息
半长轴 7055.076km 7055.086km
偏心率 0.0001901 0.000136
轨道倾角 98.054° 98.052°
近地点辐角 157.546° 97.138°
升交点赤经 57.348° 54.045°
平近点角 202.583° 137.370°
近地点 675.597km 675.989km
远地点 678.281km 677.909km
周期 98.291分钟 98.291分钟
每日圈数 14.650426 14.650394
Detailed Information
使用方式:
暂无
2D Orbit Map
3D Orbit Map
Orbit Altitude Analysis Chart
Orbit Inclination Analysis Chart
Orbit Comprehensive Analysis Chart
View Comprehensive Chart